TimeCDT,TemperatureF,Dew PointF,Humidity,Sea Level PressureIn,VisibilityMPH,Wind Direction,Wind SpeedMPH,Gust SpeedMPH,PrecipitationIn,Events,Conditions,WindDirDegrees,DateUTC
12:53 AM,82.0,75.9,82,29.96,10.0,WSW,5.8,-,N/A,,Clear,250,2013-06-28 05:53:00
1:53 AM,82.0,75.9,82,29.96,10.0,WSW,5.8,-,N/A,,Clear,250,2013-06-28 06:53:00
2:53 AM,81.0,75.9,85,29.97,10.0,WSW,5.8,-,N/A,,Clear,250,2013-06-28 07:53:00
3:53 AM,81.0,75.9,85,29.95,10.0,WSW,8.1,-,N/A,,Clear,250,2013-06-28 08:53:00
4:53 AM,81.0,75.9,85,29.94,10.0,WSW,8.1,-,N/A,,Clear,250,2013-06-28 09:53:00
5:53 AM,80.1,75.9,87,29.92,10.0,WSW,6.9,-,N/A,,Clear,240,2013-06-28 10:53:00
6:53 AM,80.1,75.9,87,29.95,10.0,WNW,5.8,-,N/A,,Clear,300,2013-06-28 11:53:00
7:53 AM,82.0,77.0,85,29.96,10.0,WNW,9.2,-,N/A,,Clear,300,2013-06-28 12:53:00
8:23 AM,82.4,77.0,84,29.96,10.0,WNW,9.2,-,N/A,,Mostly Cloudy,300,2013-06-28 13:23:00
8:53 AM,84.0,77.0,79,29.96,10.0,West,11.5,18.4,N/A,,Mostly Cloudy,280,2013-06-28 13:53:00
8:57 AM,84.2,77.0,79,29.96,10.0,WNW,9.2,18.4,N/A,,Mostly Cloudy,290,2013-06-28 13:57:00
9:22 AM,84.2,75.2,74,29.96,10.0,WNW,13.8,-,N/A,,Mostly Cloudy,290,2013-06-28 14:22:00
9:53 AM,86.0,75.9,72,29.96,10.0,West,11.5,-,N/A,,Mostly Cloudy,280,2013-06-28 14:53:00
10:00 AM,86.0,75.2,70,29.96,10.0,NW,11.5,-,N/A,,Mostly Cloudy,310,2013-06-28 15:00:00
10:40 AM,89.6,73.4,59,29.94,10.0,NW,11.5,17.3,N/A,,Partly Cloudy,310,2013-06-28 15:40:00
10:53 AM,89.1,73.9,61,29.94,10.0,West,10.4,-,N/A,,Clear,270,2013-06-28 15:53:00
11:53 AM,90.0,73.0,57,29.92,10.0,West,10.4,16.1,N/A,,Partly Cloudy,280,2013-06-28 16:53:00
12:53 PM,91.0,73.9,57,29.92,10.0,West,8.1,-,N/A,,Partly Cloudy,280,2013-06-28 17:53:00
1:53 PM,93.0,72.0,50,29.90,10.0,West,12.7,-,N/A,,Clear,280,2013-06-28 18:53:00
2:53 PM,93.9,73.0,51,29.87,10.0,West,10.4,-,N/A,,Partly Cloudy,270,2013-06-28 19:53:00
3:53 PM,93.0,73.0,52,29.85,10.0,WSW,10.4,-,N/A,,Partly Cloudy,250,2013-06-28 20:53:00
4:53 PM,93.0,72.0,50,29.83,10.0,WSW,10.4,17.3,N/A,,Partly Cloudy,250,2013-06-28 21:53:00
5:53 PM,93.0,72.0,50,29.82,10.0,West,8.1,-,N/A,,Clear,270,2013-06-28 22:53:00
6:53 PM,91.9,72.0,52,29.81,10.0,WSW,8.1,-,N/A,,Clear,250,2013-06-28 23:53:00
7:53 PM,90.0,73.0,57,29.80,10.0,WSW,8.1,-,N/A,,Clear,240,2013-06-29 00:53:00
8:53 PM,87.1,75.0,67,29.79,10.0,WSW,10.4,-,N/A,,Clear,240,2013-06-29 01:53:00
9:53 PM,84.0,73.9,72,29.81,10.0,WSW,8.1,-,N/A,,Clear,240,2013-06-29 02:53:00
10:53 PM,82.9,75.0,77,29.83,10.0,SW,10.4,-,N/A,,Clear,230,2013-06-29 03:53:00
11:53 PM,82.0,75.9,82,29.83,10.0,WSW,8.1,-,N/A,,Clear,240,2013-06-29 04:53:00